Regional Weather Roundup
Issued by NWS

Home | Current Version | Previous Version | Graphics & Text | Print | Product List | Glossary On
Versions: 1 2 3 4 5 6 7 8 9 10 11 12 13 14 15 16 17 18 19 20 21 22 23 24 25 26 27 28 29 30 31 32 33 34 35 36 37 38 39 40 41 42 43 44 45 46 47 48 49 50
000
ASUS43 KMPX 251710
RWRMN
WEATHER ROUNDUP FOR MINNESOTA
NATIONAL WEATHER SERVICE TWIN CITIES/CHANHASSEN MN
1100 AM CST THU DEC 25 2014


NOTE: "FAIR" INDICATES FEW OR NO CLOUDS BELOW 12,000 FEET WITH NO
SIGNIFICANT WEATHER AND/OR OBSTRUCTIONS TO VISIBILITY. N/A MEANS
CURRENT SKY AND/OR WEATHER CONDITIONS ARE NOT AVAILABLE.

MNZ060>063-068>070-251800-
   Twin Cities Metro

CITY           SKY/WX    TMP DP  RH WIND       PRES   REMARKS
TWIN CITIES    CLOUDY    33  27  78 S8        29.74R WCI  26
ST PAUL        CLOUDY    33  28  81 S6        29.76R WCI  28
CRYSTAL        LGT SNOW  33  29  85 S5        29.73R FOG     WCI  29
BLAINE         CLOUDY    34  32  93 S6        29.73R WCI  29
LAKEVILLE      CLOUDY    30  28  93 S6        29.74S WCI  24
EDEN PRAIRIE   CLOUDY    33  28  81 S6        29.73R WCI  28
SOUTH ST PAUL  CLOUDY    33  29  84 S5        29.75R WCI  29
LAKE ELMO      CLOUDY    32  30  93 S8        29.75S WCI  25
$$
MNZ001>005-007-008-013>017-022>024-027-028-251800-
   Northwest Minnesota

CITY           SKY/WX    TMP DP  RH WIND       PRES   REMARKS
BEMIDJI        CLOUDY    29  26  86 W8        29.66R WCI  21
HALLOCK        CLOUDY    27  23  86 NW13      29.72R WCI  16
ROSEAU         CLOUDY    28  23  80 W8        29.68R WCI  20
WARROAD        CLOUDY    28  23  80 W8        29.67R WCI  20
THIEF RVR FALL CLOUDY    28  25  86 NW12      29.69R WCI  18
CROOKSTON      PTSUNNY   28  25  86 NW12      29.73R WCI  18
FOSSTON        CLOUDY    27  25  93 W7        29.69R WCI  19
DETROIT LAKES  CLOUDY    30  28  93 NW5       29.71R WCI  25
MOORHEAD       CLOUDY    28  28 100 NW12      29.75R WCI  18
PARK RAPIDS    CLOUDY    29  25  85 NW9       29.68R WCI  20
MAHNOMEN       CLOUDY    28  25  89 W13       29.70R WCI  17
$$
MNZ006-009>011-018-025>026-251800-
   North Central Minnesota

CITY           SKY/WX    TMP DP  RH WIND       PRES   REMARKS
BAUDETTE       CLOUDY    30  25  81 W8        29.63R WCI  22
FLAG ISLAND    CLOUDY    27  25  93 W15       29.63R WCI  15
INTL FALLS     CLOUDY    30  27  88 W9        29.63R WCI  22
WASKISH        CLOUDY    30  28  93 CALM      29.66R
BIG FORK       CLOUDY    30  27  86 W5        29.64R WCI  25
LONGVILLE      CLOUDY    30  27  86 W6        29.67R WCI  24
GRAND RAPIDS   CLOUDY    30  27  86 W5        29.65R WCI  25
CRANE LAKE     CLOUDY    28  27  93 W3        29.64R
ORR            CLOUDY    30  25  80 W6        29.61R WCI  24
COOK           CLOUDY    30  27  86 W6        29.63S WCI  24
WALKER         CLOUDY    28  24  87 W7        29.68R WCI  20
$$
MNZ012-019>021-037-251800-
   Northeast Minnesota

CITY           SKY/WX    TMP DP  RH WIND       PRES   REMARKS
DULUTH         CLOUDY    31  27  85 W12       29.65R WCI  22
ELY            CLOUDY    30  27  86 W6        29.62R WCI  24
HIBBING        CLOUDY    32  26  78 W6        29.64R WCI  26
EVELETH        PTSUNNY   32  30  93 W7        29.64S WCI  26
DULUTH HARBOR  CLOUDY    34  30  86 SW10      29.71R WCI  26
TWO HARBORS    CLOUDY    36  28  75 W9        29.65R
SILVER BAY     CLOUDY    34  28  80 SW9       29.64R WCI  26
GRAND MARAIS     N/A     35  29  78 W7        29.64R WCI  29
G MARAIS ARPRT CLOUDY    28  25  86 SW5       29.60R WCI  23
$$
MNZ029>031-032-039>041-046>048-054>057-064-251800-
   West Central Minnesota

CITY           SKY/WX    TMP DP  RH WIND       PRES   REMARKS
FERGUS FALLS   CLOUDY    27  25  93 N9        29.75R WCI  17
WHEATON        PTSUNNY   27  25  93 N10       29.75R WCI  17
MORRIS         CLOUDY    30  28  93 N9        29.70R WCI  22
ALEXANDRIA     CLOUDY    30  27  88 W6        29.70R WCI  24
ELBOW LAKE     CLOUDY    27  26  96 NW8       29.71R WCI  18
WADENA         CLOUDY    28  27  93 NW6       29.69R WCI  22
GLENWOOD       CLOUDY    30  28  93 SW5       29.70R WCI  25
APPLETON       CLOUDY    34  30  86 N3        29.71R
BENSON         CLOUDY    34  28  80 CALM      29.71R
ORTONVILLE     CLOUDY    30  27  86 N9        29.71R WCI  22
MADISON        LGT SNOW  36  34  93 CALM      29.71R
WILLMAR        LGT SNOW  32  28  86 CALM      29.73R
$$
MNZ033>034-036-042>043-049>051-058-059-251800-
   Central Minnesota

CITY           SKY/WX    TMP DP  RH WIND       PRES   REMARKS
ST CLOUD       CLOUDY    34  28  79 SW7       29.71R WCI  28
SAUK CENTRE    CLOUDY    31  28  90 W6        29.70R WCI  25
PAYNESVILLE    CLOUDY    29  28  94 S5        29.72R FOG     WCI  24
AITKIN         CLOUDY    34  28  80 SW3       29.68R
PINE RIVER     CLOUDY    30  28  93 CALM      29.72R
BRAINERD       CLOUDY    31  27  85 W7        29.69R WCI  24
STAPLES        CLOUDY    30  28  93 W7        29.69R WCI  23
LONG PRAIRIE   CLOUDY    30  28  93 CALM      29.70R
LITTLE FALLS   CLOUDY    32  28  86 SW6       29.71R WCI  26
LITCHFIELD     LGT SNOW  32  30  93 CALM      29.72R
BUFFALO        CLOUDY    32  29  89 S3        29.73R FOG
MAPLE LAKE     CLOUDY    33  31  94 CALM      29.73R FOG
$$
MNZ037-044-045-052-053-251800-
   East Central Minnesota

CITY           SKY/WX    TMP DP  RH WIND       PRES   REMARKS
PRINCETON      CLOUDY    34  28  80 S8        29.72S WCI  27
MORA           CLOUDY    32  27  80 SW7       29.73R WCI  26
CAMBRIDGE      CLOUDY    34  25  69 SW5       29.71S WCI  30
RUSH CITY      CLOUDY    32  28  84 S9        29.73R WCI  24
MOOSE LAKE     CLOUDY    32  28  86 SW6       29.68R WCI  26
HINCKLEY       CLOUDY    32  30  93 SW3       29.72R
CLOQUET        CLOUDY    30  27  86 SW8       29.67R WCI  23
MCGREGOR       CLOUDY    32  28  86 W6        29.69R WCI  26
$$
MNZ071>073-080-081-089-090-097-098-251800-
   Southwest Minnesota

CITY           SKY/WX    TMP DP  RH WIND       PRES   REMARKS
MONTEVIDEO     LGT SNOW  34  34 100 CALM      29.72S
GRANITE FALLS  LGT SNOW  32  29  91 CALM      29.72F
CANBY          LGT SNOW  32  31  96 CALM      29.72R
MARSHALL       PTSUNNY   30  28  93 N3        29.71S
REDWOOD FALLS  CLOUDY    32  28  85 SW5       29.72R WCI  27
OLIVIA         CLOUDY    32  30  93 SW5       29.72R WCI  27
PIPESTONE      CLOUDY    30  28  93 SE6       29.67R WCI  24
WINDOM         PTSUNNY   32  28  86 CALM      29.70R
WORTHINGTON    CLOUDY    32 -17  11 CALM      29.70R
JACKSON        CLOUDY    32  28  86 S6        29.70R WCI  26
TRACY          PTSUNNY   32  30  92 N5        29.69S WCI  27
SLAYTON        CLOUDY    31  28  90 CALM      29.69R
$$
MNZ065>067-074>077-082>085-091>093-251800-
   South Central Minnesota

CITY           SKY/WX    TMP DP  RH WIND       PRES   REMARKS
MANKATO        CLOUDY    34  27  75 S9        29.74R WCI  26
NEW ULM        CLOUDY    32  30  93 S6        29.72S WCI  26
FAIRMONT       CLOUDY    34  27  75 S7        29.71S WCI  28
GLENCOE        CLOUDY    33  32  94 S7        29.73R WCI  27
FARIBAULT      CLOUDY    34  28  80 S9        29.74S WCI  26
OWATONNA       CLOUDY    34  28  80 S12       29.74S WCI  25
ALBERT LEA     CLOUDY    34  30  86 S8        29.74R WCI  27
$$
MNZ078>079-086>088-094>096-251800-
   Southeast Minnesota

CITY           SKY/WX    TMP DP  RH WIND       PRES   REMARKS
ROCHESTER      CLOUDY    31  28  89 S12       29.76R WCI  22
RED WING       CLOUDY    34  28  80 S5        29.77R WCI  30
STANTON        CLOUDY    34  29  83 S9        29.74R WCI  27
DODGE CENTER   CLOUDY    32  30  93 S14       29.74S WCI  22
WINONA         CLOUDY    34  30  86 S7        29.81R WCI  28
AUSTIN         CLOUDY    32  28  86 S12       29.75R WCI  23
PRESTON        CLOUDY    31  28  90 S15       29.77S WCI  20
$$
ABBREVIATIONS USED IN REMARKS
   TC - TEMPERATURES IN CELSIUS
  WCI - WIND CHILL INDEX
   HX - HEAT INDEX
  VSB - VISIBILITY
$$


USA.gov is the U.S. government's official web portal to all federal, state and local government web resources and services.